37P/Forbes (2018)

Japanese version
Home page
Updated on June 11, 2016

---------------------------------------------------------------------

* Profile

* Orbital Elements

Epoch 2018 May 2.0 TT = JDT 2458240.5
T 2018 May 4.10373 TT                                   Kobayashi
q   1.6102795            (2000.0)            P               Q
n   0.15337421     Peri.  329.97802     +0.25588499     +0.96032866
a   3.4564835      Node   314.59068     -0.85306853     +0.17036553
e   0.5341278      Incl.    8.95641     -0.45474934     +0.22078145
P   6.43
From 695 observations 1993 Mar. 21-2012 Dec. 9, mean residual 0".8.
     Nongravitational parameters A1 = +0.67, A2 = -0.0330.

* Finding Charts

* Magnitudes Graph

        m1 = 9.0 + 5 log d + 20 log r

---------------------------------------------------------------------

The orbital elements are published on M.P.E.C. 2015-M77.
The charts are made with StellaNavigator Ver.8 (AstroArts).
The magnitudes graphs are made with Comet for Windows.

---------------------------------------------------------------------

Copyright(C) Seiichi Yoshida (comet@aerith.net). All rights reserved.